OPS 4682 DEB, 38377

Orbit data source: Space-Track

OPS 4682 DEB, 38377 is space debris in LEO originally from a launch on Sat, 03 Apr 1965 UTC launched from the Air Force Western Test Range (AFWTR). Debris objects in space refer to the collection of defunct objects orbiting the Earth. Examples of debris include non-operational satellites, rocket bodies, and fragments generated from explosions, collisions, or faulty payload assembly.

Loading next visibility...
Identifier
38377, 1965-027CE
Orbit
LEO
Country
Flag of USUS
Related business
Manufacturer
Unknown
Mission
Spacecraft
Bus & Motor
Unknown
Mass
Unknown
Launch date (UTC)
1965-04-03 (61 years ago)
Launch vehicle
Unknown
Launch site
Air Force Western Test Range (AFWTR)
Object type
Payload
Rocket body
Debris
Shape & HBR
Unknown shape, 0.1 m
Radar Cross Section
Small (<0.1 m²)

Expand to show TLE details & history
Last TLE update: 4 days ago

TLE from 4 days ago
0 OPS 4682 DEB
1 38377U 65027CE  25290.48471777  .00000045  00000-0  12903-3 0  9998
2 38377  90.2513   5.7946 0035051  34.0296 326.3062 12.96545562572651
Epoch: 2025-10-17T11:37Z
TLE epoch observation values (Epoch: 2025-10-17T11:37:59.615Z)
Latitude
-0.00003°
Longitude
165.06679°
Altitude
1,256.234 km
Speed
7.238 km/s
True Right ascension
00h 23m 10s
True Declination
0° 00' 00"
Sunlit
Object was in full shadow at epoch
Visualization orbit readout
Latitude
Unknown
Longitude
Unknown
Altitude
Unknown
Speed
Unknown
Apparent Right ascension
Unknown
Apparent Declination
Unknown
Sunlit
N/A
Visualization observer readout
Local Sidereal Time
12:31:26
Azimuth
Unknown
Elevation
Unknown
Doppler factor
Unknown
Orbital elements
Apogee altitude
1,299.601 km
Perigee altitude
1,245.966 km
Semi-major axis
7,650.92 km
Eccentricity
0.00351
Inclination
90.2513°
RAAN
5.7946°
Arg. of periapsis
34.0296°
True anomaly
326.08257°
Mean anomaly
326.3062°
Eccentric anomaly
326.19446°
Mean motion
3.24319 °/min
Orbital period
111 mins
BSTAR
0.00012903
Loading maneuver chart data...
Computing Atmospheric mass density...
Loading historical data...
Loading historical data...
Loading historical data...
Loading historical data...
Loading historical data...
Loading historical data...
Loading historical data...

Documentation

Showing up to 5 results
|